[[{"header":{"parameterUnit":"m.s-1","parameterCategory":1,"la1":30.2991,"la2":30.254,"lo1":-89.0895,"lo2":-89.0444,"dy":0.0017,"dx":0.0017,"nx":28,"ny":28,"refTime":"2024-12-19T09:00:00:Z","depth":0,"parameterNumber":2,"parameterNumberName":"U-component_of_WINDS"},"data":[0,0,0,0,0,0,0,0,0,0,0,0,0,0,0,0,0,0,0,0,0,0,0,0,0,0,0,0,0,0,0,0,0,0,0,0,0,0,0,0,0,0,0,0,0,0,0,0,0,0,0,0,0,0,0,0,0,0,2.0323,2.0323,0,2.0344,2.0344,2.0345,2.0321,2.032,2.0319,2.0318,2.0338,2.034,2.0341,0,0,0,0,0,0,0,0,0,0,0,0,0,2.0261,2.0262,2.0323,2.0323,2.0323,2.0344,2.0344,2.0345,2.0321,2.032,2.0319,2.0317,2.0338,2.034,2.0341,0,0,0,0,0,0,0,0,0,0,0,0,0,2.0286,2.0263,2.0323,2.0314,2.0313,2.0344,2.0344,2.0345,2.0321,2.032,2.0318,2.0317,2.0337,2.0339,2.0341,2.0381,0,0,2.0348,2.0349,0,0,0,0,0,0,0,0,2.0284,2.0288,2.0315,2.0315,2.0314,2.0328,2.033,2.0357,2.0321,2.0318,2.0318,2.0316,2.0336,2.0338,2.0345,2.0382,2.0383,2.0348,2.0349,2.035,2.0351,0,0,0,0,0,0,0,2.0283,2.0287,2.0331,2.0315,2.0315,2.0309,2.0311,2.0335,2.0334,2.0318,2.0317,2.0319,2.0335,2.0343,2.0345,2.0384,2.0348,2.035,2.0351,2.0352,2.0456,2.0457,0,0,0,0,0,0,2.0282,2.0286,2.0331,2.0332,2.0296,2.0311,2.0313,2.0325,2.0334,2.0334,2.0321,2.0318,2.034,2.0343,2.0346,2.0394,2.035,2.0352,2.0353,2.0454,2.0456,2.0458,0,0,0,0,0,0,2.0281,2.0286,2.033,2.0308,2.0313,2.0314,2.0327,2.0326,2.0334,2.0336,2.0335,2.0329,2.0339,2.0343,2.0373,2.0394,2.0353,2.0355,2.0453,2.0455,2.0457,2.049,0,0,0,0,0,0,2.0279,2.0286,2.0301,2.0309,2.0315,2.0357,2.0328,2.0328,2.0338,2.0335,2.0343,2.0343,2.0338,2.037,2.0375,2.0397,2.0357,2.0451,2.0454,2.0456,2.0487,2.0493,2.0499,0,0,0,0,0,2.0277,2.0309,2.0302,2.0308,2.0334,2.0358,2.0361,2.0355,2.0339,2.0355,2.0356,2.0343,2.0391,2.0373,2.0379,2.0401,2.0449,2.0453,2.0456,2.0485,2.0492,2.0498,0,0,0,0,0,0,2.0303,2.031,2.0302,2.0338,2.0348,2.0354,2.0373,2.0363,2.0377,2.0374,2.0366,2.0368,2.04,2.0404,2.0384,2.0441,2.0418,2.0422,2.0438,2.0445,2.045,2.0449,2.0358,0,0,0,0,0,2.0313,2.0333,2.0337,2.0368,2.0374,2.0373,2.0383,2.0378,2.0387,2.0391,2.0395,2.0404,2.0422,2.0433,2.0449,2.0488,2.049,2.0506,2.0512,2.0516,2.052,2.0542,2.0549,2.0469,2.0469,2.0469,0,0,2.0334,2.034,2.0352,2.0374,2.0381,2.0401,2.0376,2.0398,2.0413,2.0394,2.0423,2.0427,2.0437,2.0471,2.0487,2.0475,2.0543,2.0521,2.0524,2.0526,2.0546,2.0554,2.056,2.0471,2.0471,2.0471,0,0,2.0382,2.0388,2.0415,2.0423,2.0434,2.0434,2.044,2.0448,2.045,2.0479,2.0466,2.0483,2.0513,2.0521,2.0529,2.0582,2.0571,2.0588,2.0617,2.0638,2.0645,2.065,2.067,2.0677,2.0592,2.0592,2.0592,0,2.0406,2.0436,2.043,2.0454,2.0464,2.0449,2.0476,2.0484,2.05,2.0507,2.0494,2.0532,2.0538,2.0574,2.0588,2.0594,2.0602,2.0587,2.0644,2.065,2.0655,2.0673,2.0681,2.0594,2.0594,2.0593,2.0593,0,2.0465,2.0487,2.0507,2.0524,2.0536,2.0561,2.0559,2.0573,2.0567,2.0568,2.0598,2.0605,2.0622,2.0631,2.0625,2.0667,2.066,2.0646,2.0622,2.0665,2.0682,2.0689,2.0597,2.0596,2.0595,2.0595,0,0,2.0529,2.0544,2.0551,2.0559,2.0571,2.0587,2.0612,2.063,2.0642,2.0654,2.0675,2.0701,2.0689,2.0698,2.0693,2.0712,2.0754,2.0696,2.0696,2.0707,2.0802,2.0813,2.0821,2.0747,2.0748,2.0749,2.0801,0,2.0578,2.0622,2.0618,2.066,2.068,2.0666,2.0688,2.0698,2.07,2.0717,2.0718,2.0738,2.072,2.0725,2.0743,2.0745,2.0773,2.0741,2.0766,2.0767,2.0764,2.083,2.0841,2.089,2.0808,2.0809,2.081,0,2.064,2.0656,2.0699,2.071,2.0718,2.0738,2.0754,2.0771,2.0782,2.0782,2.0793,2.0786,2.0811,2.0787,2.0822,2.0801,2.0811,2.0814,2.0816,2.0818,2.0791,2.0834,2.0905,2.0912,2.082,2.0819,2.0819,0,2.0683,2.0715,2.0745,2.0752,2.0765,2.0779,2.0785,2.0795,2.0806,2.0821,2.0828,2.0846,2.0855,2.0869,2.0866,2.0849,2.0902,2.0878,2.0903,2.0903,2.0915,2.0914,2.0989,2.0921,2.0921,2.0921,2.0921,0,2.0738,2.0766,2.0765,2.0784,2.0814,2.081,2.084,2.0844,2.0853,2.0873,2.0862,2.088,2.0876,2.0894,2.0892,2.0922,2.0926,2.0927,2.0926,2.0928,2.0928,2.0935,2.0931,2.0923,2.0922,2.0922,2.0921,0,2.0791,2.0792,2.0824,2.0834,2.0837,2.0859,2.0868,2.0885,2.0887,2.0912,2.0917,2.0919,2.094,2.0939,2.0963,2.0962,2.0999,2.0994,2.0995,2.0994,2.102,2.1017,2.1101,2.1112,2.1037,2.1038,2.1038,0,2.0826,2.0847,2.086,2.0872,2.0879,2.09,2.0912,2.0908,2.0921,2.0936,2.0953,2.0973,2.0989,2.1024,2.1027,2.1046,2.1041,2.1069,2.1044,2.1045,2.1042,2.1041,2.1043,2.1074,2.1075,2.1076,2.1076,0,2.0889,2.0888,2.0906,2.0925,2.094,2.0954,2.0967,2.0978,2.0976,2.0991,2.1013,2.1026,2.1051,2.1071,2.1089,2.1095,2.1086,2.1084,2.1091,2.1094,2.1094,2.1095,2.1009,2.1082,2.1082,2.1081,2.1081,2.1081,2.0934,2.0952,2.0964,2.0985,2.0995,2.1008,2.1025,2.103,2.1048,2.1069,2.1065,2.109,2.1102,2.1125,2.1133,2.1152,2.1142,2.1152,2.1154,2.1157,2.116,2.1091,2.1155,2.1155,2.1155,2.1155,2.1155,0,2.0996,2.1003,2.1023,2.1042,2.1059,2.1049,2.1063,2.1078,2.11,2.1112,2.1128,2.1154,2.1175,2.118,2.12,2.1214,2.1211,2.122,2.1219,2.122,2.1168,2.116,2.1222,2.1222,2.1222,2.1222,2.1222,2.1222,2.103,2.1061,2.1063,2.1099,2.1106,2.1131,2.114,2.1152,2.1162,2.1191,2.1208,2.1212,2.1222,2.1242,2.1261,2.1262,2.127,2.1281,2.128,2.1231,2.1224,2.1217,2.121,2.1282,2.1282,2.1331,2.1332,2.1332]},{"header":{"parameterUnit":"m.s-1","parameterCategory":1,"la1":30.2991,"la2":30.254,"lo1":-89.0895,"lo2":-89.0444,"dy":0.0017,"dx":0.0017,"nx":28,"ny":28,"refTime":"2024-12-19T09:00:00:Z","depth":0,"parameterNumber":3,"parameterNumberName":"V-component_of_WINDS"},"data":[0,0,0,0,0,0,0,0,0,0,0,0,0,0,0,0,0,0,0,0,0,0,0,0,0,0,0,0,0,0,0,0,0,0,0,0,0,0,0,0,0,0,0,0,0,0,0,0,0,0,0,0,0,0,0,0,0,0,-3.8921,-3.8922,0,-3.9004,-3.9005,-3.9006,-3.8982,-3.8981,-3.8979,-3.8977,-3.9058,-3.9062,-3.9065,0,0,0,0,0,0,0,0,0,0,0,0,0,-3.874,-3.8744,-3.8921,-3.8922,-3.8923,-3.9004,-3.9005,-3.9006,-3.8983,-3.8981,-3.8978,-3.8977,-3.9057,-3.9061,-3.9066,0,0,0,0,0,0,0,0,0,0,0,0,0,-3.882,-3.8745,-3.8921,-3.8921,-3.8922,-3.9004,-3.9005,-3.9006,-3.8983,-3.898,-3.8978,-3.8976,-3.9055,-3.9061,-3.9066,-3.9151,0,0,-3.9083,-3.9086,0,0,0,0,0,0,0,0,-3.8816,-3.8827,-3.892,-3.8922,-3.8923,-3.898,-3.8971,-3.9055,-3.8984,-3.896,-3.8977,-3.8974,-3.9034,-3.9041,-3.9062,-3.9155,-3.9158,-3.9084,-3.9087,-3.9089,-3.9091,0,0,0,0,0,0,0,-3.881,-3.8823,-3.8954,-3.8922,-3.8923,-3.8917,-3.8925,-3.8986,-3.901,-3.8962,-3.896,-3.8971,-3.9034,-3.9057,-3.9064,-3.9159,-3.9084,-3.9089,-3.9092,-3.9094,-3.9326,-3.9329,0,0,0,0,0,0,-3.8805,-3.8819,-3.8951,-3.8956,-3.8862,-3.8922,-3.8931,-3.8964,-3.9009,-3.9014,-3.8973,-3.8969,-3.9048,-3.9057,-3.9066,-3.9169,-3.9089,-3.9095,-3.9098,-3.9323,-3.9327,-3.933,0,0,0,0,0,0,-3.8801,-3.8817,-3.8948,-3.8887,-3.8904,-3.8928,-3.8965,-3.8967,-3.899,-3.9017,-3.9021,-3.8992,-3.9047,-3.9059,-3.913,-3.9171,-3.9097,-3.9102,-3.932,-3.9324,-3.9328,-3.9374,0,0,0,0,0,0,-3.8796,-3.8815,-3.8848,-3.8888,-3.8907,-3.9012,-3.8967,-3.8971,-3.9,-3.8996,-3.9036,-3.904,-3.9046,-3.9122,-3.9136,-3.9177,-3.9107,-3.9316,-3.9322,-3.9327,-3.9369,-3.9379,-3.9388,0,0,0,0,0,-3.8789,-3.8857,-3.885,-3.8866,-3.8949,-3.9014,-3.9024,-3.903,-3.9003,-3.9036,-3.9054,-3.9039,-3.9165,-3.913,-3.9145,-3.9189,-3.9314,-3.932,-3.9326,-3.9364,-3.9377,-3.9388,0,0,0,0,0,0,-3.8819,-3.8862,-3.8855,-3.8938,-3.8973,-3.901,-3.9051,-3.9043,-3.9085,-3.908,-3.9084,-3.9093,-3.9167,-3.9185,-3.9146,-3.9273,-3.9235,-3.9245,-3.9259,-3.9271,-3.928,-3.9274,-3.9111,0,0,0,0,0,-3.8836,-3.8886,-3.892,-3.899,-3.9008,-3.9027,-3.9056,-3.9057,-3.9093,-3.9107,-3.913,-3.9164,-3.9212,-3.9242,-3.9287,-3.9372,-3.938,-3.9409,-3.9419,-3.9426,-3.9434,-3.948,-3.9494,-3.9351,-3.9351,-3.935,0,0,-3.887,-3.8899,-3.8931,-3.8997,-3.9024,-3.9075,-3.9039,-3.9095,-3.9133,-3.9115,-3.9185,-3.9203,-3.9241,-3.932,-3.9356,-3.9337,-3.9476,-3.9435,-3.9441,-3.9444,-3.9488,-3.9502,-3.9514,-3.9355,-3.9354,-3.9353,0,0,-3.8958,-3.8986,-3.9047,-3.9076,-3.9118,-3.913,-3.9145,-3.9184,-3.9196,-3.9267,-3.9255,-3.9299,-3.938,-3.9409,-3.9433,-3.9534,-3.9522,-3.9549,-3.9598,-3.9643,-3.9654,-3.9664,-3.97,-3.9713,-3.9557,-3.9557,-3.9557,0,-3.8994,-3.9072,-3.9079,-3.9136,-3.9166,-3.9154,-3.9216,-3.9243,-3.9297,-3.9317,-3.9296,-3.9399,-3.9424,-3.9509,-3.9534,-3.9554,-3.9571,-3.9543,-3.9652,-3.9662,-3.9672,-3.9706,-3.9719,-3.956,-3.9559,-3.9559,-3.9559,0,-3.9115,-3.9169,-3.9213,-3.9268,-3.9302,-3.9361,-3.9377,-3.9411,-3.941,-3.9424,-3.9496,-3.9526,-3.9577,-3.9598,-3.9597,-3.9683,-3.967,-3.9651,-3.9613,-3.9688,-3.972,-3.9733,-3.9564,-3.9563,-3.9562,-3.9561,0,0,-3.9222,-3.9282,-3.9298,-3.9323,-3.9369,-3.9411,-3.9469,-3.9521,-3.955,-3.9588,-3.9637,-3.9707,-3.969,-3.9718,-3.972,-3.976,-3.9837,-3.9735,-3.9736,-3.9753,-3.9934,-3.9948,-3.9963,-3.983,-3.9833,-3.9835,-3.9931,0,-3.9314,-3.9418,-3.9427,-3.9521,-3.9571,-3.9562,-3.9613,-3.9646,-3.9662,-3.9706,-3.9722,-3.9772,-3.9745,-3.9763,-3.9801,-3.982,-3.9874,-3.9813,-3.9874,-3.9876,-3.9864,-3.998,-3.9994,-4.0084,-3.9943,-3.9945,-3.9947,0,-3.9434,-3.9478,-3.9577,-3.9618,-3.9639,-3.9685,-3.9733,-3.9776,-3.9814,-3.9823,-3.9855,-3.9853,-3.9912,-3.9873,-3.9954,-3.9913,-3.9939,-3.9952,-3.9955,-3.996,-3.9916,-3.9987,-4.0112,-4.0125,-3.9967,-3.9965,-3.9964,0,-3.9502,-3.9586,-3.9656,-3.9678,-3.9727,-3.976,-3.9781,-3.9817,-3.9848,-3.989,-3.991,-3.9958,-3.9984,-4.0021,-4.0031,-4.0001,-4.0113,-4.0074,-4.012,-4.012,-4.0143,-4.0141,-4.0273,-4.0161,-4.0161,-4.0161,-4.0161,0,-3.9603,-3.9664,-3.9688,-3.9731,-3.9799,-3.9808,-3.9875,-3.9894,-3.9927,-3.9973,-3.9968,-4.0011,-4.0022,-4.0067,-4.0075,-4.0142,-4.0154,-4.0162,-4.0163,-4.0162,-4.0161,-4.0178,-4.0172,-4.0164,-4.0164,-4.0163,-4.0162,0,-3.969,-3.9708,-3.9784,-3.9826,-3.9837,-3.9886,-3.992,-3.9961,-3.9977,-4.0036,-4.005,-4.0074,-4.0127,-4.0141,-4.0204,-4.0209,-4.0288,-4.0283,-4.0275,-4.0275,-4.032,-4.0316,-4.0467,-4.0487,-4.0363,-4.0364,-4.0365,0,-3.9752,-3.9799,-3.9846,-3.9878,-3.9902,-3.9952,-3.9984,-3.9996,-4.0029,-4.0077,-4.0112,-4.0165,-4.0208,-4.0293,-4.0315,-4.0363,-4.0359,-4.0409,-4.0366,-4.0364,-4.036,-4.0357,-4.0361,-4.0417,-4.0418,-4.0419,-4.042,0,-3.9861,-3.9869,-3.9916,-3.9967,-4.0006,-4.0046,-4.0084,-4.011,-4.0127,-4.0164,-4.022,-4.0253,-4.0318,-4.0371,-4.042,-4.0441,-4.0433,-4.0434,-4.0447,-4.0446,-4.0439,-4.0443,-4.0297,-4.043,-4.0429,-4.0428,-4.0428,-4.0427,-3.9938,-3.9979,-4.0019,-4.0072,-4.0103,-4.0139,-4.018,-4.0202,-4.0249,-4.0304,-4.0308,-4.0367,-4.0405,-4.0471,-4.0495,-4.0541,-4.0526,-4.0545,-4.055,-4.0554,-4.0558,-4.0433,-4.055,-4.055,-4.055,-4.0549,-4.0549,0,-4.0046,-4.0072,-4.0121,-4.0176,-4.0217,-4.0209,-4.0251,-4.0286,-4.0339,-4.0376,-4.0419,-4.0482,-4.0534,-4.0561,-4.0611,-4.0643,-4.0641,-4.0656,-4.0653,-4.0658,-4.0569,-4.0552,-4.0657,-4.0657,-4.0657,-4.0657,-4.0657,-4.0657,-4.0107,-4.0177,-4.0189,-4.0275,-4.03,-4.036,-4.0385,-4.0418,-4.0448,-4.0519,-4.0563,-4.0581,-4.0613,-4.0667,-4.0713,-4.072,-4.0738,-4.0755,-4.076,-4.0675,-4.0664,-4.0654,-4.0638,-4.0759,-4.0759,-4.0845,-4.0846,-4.0847]}]]